Location: Albany
(35.0000°S, 118.0000°E)
Time: 20:14:21
(UTC-04:00)

Vanguard 3 - Visible Passes

Search period start: 17 April 2014 00:00
Search period end: 27 April 2014 00:00
Orbit: 507 x 3281 km, 33.4° (Epoch: 16 April)

Date Brightness Start Highest point End Pass type
(mag) Time Alt. Az. Time Alt. Az. Time Alt. Az.
17 Apr 11.1 13:15:42 13° ENE 13:15:42 13° ENE 13:16:48 10° ENE visible
17 Apr 10.0 15:20:30 36° N 15:20:30 36° N 15:32:30 10° NE visible
17 Apr 10.6 17:25:18 11° WNW 17:32:35 16° NW 17:41:51 10° N visible
18 Apr 8.6 07:25:11 10° N 07:26:05 14° N 07:26:05 14° N visible
18 Apr 10.6 14:13:14 23° NE 14:13:14 23° NE 14:18:37 10° NE visible
18 Apr 10.3 16:18:01 24° NW 16:19:06 24° NNW 16:31:24 10° NNE visible
19 Apr 10.3 15:10:43 26° N 15:10:43 26° N 15:18:59 10° NNE visible
19 Apr 10.8 17:17:31 10° NW 17:20:52 11° NW 17:24:28 10° NNW visible
20 Apr 7.9 07:13:39 10° NNW 07:15:56 21° NNE 07:15:56 21° NNE visible
20 Apr 10.9 14:03:23 15° NE 14:03:23 15° NE 14:05:35 10° NE visible
20 Apr 10.5 16:08:11 18° NNW 16:08:11 18° NNW 16:16:44 10° N visible
21 Apr 8.6 06:05:04 10° NNE 06:05:32 10° NNE 06:06:00 10° NE visible
21 Apr 9.2 08:12:50 10° WNW 08:13:12 13° WNW 08:13:12 13° WNW visible
21 Apr 10.7 15:00:48 18° N 15:00:48 18° N 15:05:11 10° NNE visible
22 Apr 7.4 07:02:14 10° NW 07:05:26 28° NNE 07:05:40 28° NNE visible
22 Apr 10.8 15:58:10 12° NNW 15:58:10 12° NNW 16:00:43 10° NNW visible
23 Apr 8.7 08:01:49 10° WNW 08:02:53 18° WNW 08:02:53 18° WNW visible
23 Apr 11.0 14:50:42 10° N 14:50:42 10° N 14:50:55 10° N visible
24 Apr 7.1 06:50:52 10° NW 06:54:22 35° NNE 06:55:18 30° NE visible
25 Apr 8.2 07:50:47 10° WNW 07:52:28 25° WNW 07:52:28 25° WNW visible
26 Apr 6.8 06:39:31 10° WNW 06:43:19 44° NNE 06:44:52 28° ENE visible
